Regional Weather Roundup
Issued by NWS Midland/Odessa, TX

Skip options and go directly to product.
Home | Oldest Version | Previous Version | Current Version | All | Text Only | Save Text | Print | Product List | Glossary On

Skip product version selection by date and time.   
740
ASUS44 KMAF 062310
RWRMAF
MIDLAND AREA WEATHER ROUNDUP
NATIONAL WEATHER SERVICE MIDLAND TX
500 PM CST SAT FEB 06 2016

...IN SOUTHWEST TEXAS AND SOUTHEAST NEW MEXICO...

CITY           SKY/WX    TMP DP  RH WIND       PRES   REMARKS
ALPINE         SUNNY     60   5  11 W8        30.38S
ANDREWS        FAIR      59   9  14 SW10      30.29F
ARTESIA        SUNNY     61  12  15 SE17      30.24F
BIG SPRING     SUNNY     55  17  23 S3        30.32F
CARLSBAD       SUNNY     63   7  11 SE13      30.24F
DRYDEN           N/A     66  10  11 SW8G21    30.29F
FORT STOCKTON  SUNNY     62   6  11 W7        30.31S
GUAD PASS      SUNNY     53   1  12 W30G37    30.31F
HOBBS          SUNNY     59   0   9 S9        30.27F
MARFA          SUNNY     57   4  12 W13       30.35S
MIDLAND AIRPK  SUNNY     59  11  14 S3        30.31S
MIDLAND INTL   SUNNY     60  11  14 S7        30.30F
ODESSA         SUNNY     59   7  12 S8        30.30F
PECOS          SUNNY     64  11  12 SW10      30.29S
PRESIDIO       FAIR      61   7  12 CALM      30.32F
SEMINOLE       SUNNY     59   9  14 S6        30.28F
SNYDER           N/A     56  16  20 S5        30.30F
WINK           SUNNY     62   4  10 SW7       30.27F
$$
...OTHER STATIONS IN TEXAS...

CITY           SKY/WX    TMP DP  RH WIND       PRES   REMARKS
ABILENE        SUNNY     55  17  22 NW7       30.34F
AMARILLO       SUNNY     55  10  16 S16G22    30.22F
AUSTIN         MOSUNNY   59  26  28 N15       30.33R
BROWNSVILLE    SUNNY     70  20  15 NW14G21   30.33S
CORPUS CHRISTI MOSUNNY   67  20  16 NW24      30.33S
DALLAS FTW     MOSUNNY   52  32  46 N6        30.34S
DEL RIO        SUNNY     66  14  13 N12       30.33F
EL PASO        MOSUNNY   55   2  11 CALM      30.33F
HOUSTON INT    MOSUNNY   58  32  37 NW10      30.30R
LUBBOCK        MOSUNNY   56  11  16 S9        30.25F
SAN ANGELO     SUNNY     59  17  19 VRB5      30.32F
SAN ANTONIO    SUNNY     61  19  19 NW16      30.34F
WACO           PTSUNNY   53  35  50 N13G20    30.36R
WICHITA FALLS  NOT AVBL
$$
...OTHER LOCATIONS IN NEW MEXICO...

CITY           SKY/WX    TMP DP  RH WIND       PRES   REMARKS
ALAMAGORDO     SUNNY     55   3  12 NW9       30.33F
ALBUQUERQUE    SUNNY     49   8  19 SW6       30.33S
CANNON AFB     SUNNY     58  10  14 S12       30.19F
CLOVIS         SUNNY     55  10  16 SW12      30.22F
HOLLOMAN AFB   SUNNY     55   0  10 W6        30.32F
ROSWELL        SUNNY     61   5  10 S12       30.24F
RUIDOSO          N/A     50   0  12 N5        30.33S
SANTA FE       SUNNY     45  11  25 N9        30.30S
TRUTH OR CONSE SUNNY     53   3  13 S6        30.32F
TUCUMCARI      SUNNY     58   3  11 S9        30.16F
$$

USA.gov is the U.S. government's official web portal to all federal, state and local government web resources and services.